sat.trackr.live / text

‹ back to catalog

SKYSAT-C6

NORAD 42992 · 2017-068F

PAYLOAD ACTIVE UNKNOWN

§ Identity

Operator
Country
US
Launch date
2017-10-31
Launch site
AFWTR
Launch vehicle
Mass (kg)
RCS (m²)

Purposes: earth_obs

External: N2YO · Heavens-Above · Gunter

§ Orbital elements

Epoch: 2026-09-13T22:02:00.968064Z

Period
93.87 min
Inclination
97.4700°
Eccentricity
0.0001688
Mean motion
15.34069948 rev/d
Perigee alt
462.5 km
Apogee alt
464.8 km
Semi-major
6,841.8 km
B*
2.1254e-4
RAAN
35.4612°
Arg perigee
143.7056°
Mean anomaly
216.4301°
Rev number
49,592

§ Raw data

SKYSAT-C61 42992U 17068F   26256.91806676  .00006926  00000+0  21254-3 0  99912 42992  97.4700  35.4612 0001688 143.7056 216.4301 15.34069948495920

JSON: /api/v1/satellites/42992 · /tle

For live sub-satellite position, see the globe view (requires WebGL).

§ Visibility from observer

Set your observer location to see the next 7 days of passes ≥ 10°. The values pass through the URL so the page stays shareable.

No JS? Fill the form by hand. The geolocation button needs JavaScript.